User: anonymous   Login
Location: Pacheco
(37.9835°N, 122.0752°W)
Time: 01:41:35
(UTC+00:00)
Language:

Cosmos 1805 - Orbit

View from above orbital plane
View from above orbital plane
View from above satellite
View from above satellite

Ground track
Ground track

The orbit data is extracted from the following two-line orbital elements,

1 17191U 86097A   24167.56288101  .00009369  00000-0  37281-3 0  9991
2 17191  82.4707  22.5540 0001842 230.6029 129.5046 15.25129115 50075
Epoch (UTC): 15 June 2024 13:30:32
Eccentricity: 0.0001842
inclination: 82.4707°
perigee height: 489 km
apogee height: 491 km
right ascension of ascending node: 22.5540°
argument of perigee: 230.6029°
revolutions per day: 15.25129115
mean anomaly at epoch: 129.5046°
orbit number at epoch: 5007

The dashed part of the orbit path shows where the satellite is in the earth's shadow,  

DLR